Find USA 81

NORAD ID: 21949 Int'l Des: 1992-023 Owner: NRO Country: US operational
LEOCIRCULARPOLAR

Aktuelle Ansicht

3D-Globus wird geladen...

About USA 81

USA 81 (NORAD 21949) is a satellite launched Apr 25, 1992 by NRO of US. It operates in LEO, CIRCULAR, POLAR orbit with a mass of 1450.00 kg.

Nächste Überflüge

Passes for default location (London). Set your location on the main map for personalized predictions.

Höhenverlauf

Loading altitude history...

Zweizeiliger Elementsatz

1 21949U 92023A 26195.16944021 .00000112 00000-0 34052-4 0 9993
2 21949 85.0051 58.4309 0002034 65.0650 295.0754 14.32404781112893
Epoch: 14. Juli 2026 • Age: 13 hours

Aktueller Status

Höhe 786.5 km
Apogäum / Perigäum N/A
Geschwindigkeit 7.46 km/s
Subsatellitenpunkt 8.14°N, 55.84°E
Startdatum 25. Apr. 1992
Alter 34.2 years
Typ military

Technische Details

Klassifizierung Payload
Masse 1450.00 kg
Trockenmasse 1200.00 kg
Gesamtmasse 1450.00 kg
Länge 0.50 m
Durchmesser 1.00 m
Spannweite 10.00 m
Form Cyl + Ant
Hersteller LMSC/MOTO
Bus-Typ NRO-T2
Phasenstatus In Orbit
Besitzer/Staat NRO/US

Most Searched